www.pogodaiklimat.ru

Погода и климат >> Архив погоды >> Индия >> Гуджарат >> Бхудж


ПОГОДА в Бхудже

  • Прогноз погоды в Бхудже
  • Монитор погоды в Бхудже

АРХИВ ПОГОДЫ в Бхудже

Время (UTC), дата Ветер
(напр.,м/с)
 
Видим.   Явления Облачность Т
(С)
Тd
(С)
f
(%)
Тe
(С)
Тes
(С)
Комфортность P
(гПа)
Po
(гПа)
Тmin
(С)
Tmax
(С)
R
(мм)
R24
(мм)
S
(см)
21 16.03 штиль 0 4000 м ясно +22.2 +6.0 35 +23 +23 комфорт 1013.8 1004.5
00 17.03 штиль 0 4000 м ясно +20.6 +6.3 39 +21 +21 комфорт 1014.2 1004.8
03 17.03 СВ 1 4000 м ясно +21.0 +6.9 40 +23 +27 комфорт 1015.1 1005.7 +18.4
06 17.03 СВ 2 4000 м ясно +32.4 +7.4 21 +31 +49 жарко 1012.3 1003.3
09 17.03 штиль 0 4000 м 4/0
[]
+34.6 +14.2 29 +36 +56 опасность
солнечного
удара
1009.8 992.6
12 17.03 штиль 0 4000 м ясно +34.0 +7.9 20 +32 +35 жарко 1011.4 1002.4 +36.0
15 17.03 штиль 0 4000 м ясно +28.4 +4.7 22 +27 +27 жарко 1012.8 1003.7
18 17.03 ЮЗ 1 4000 м ясно +24.6 +9.2 38 +25 +25 комфорт 1013.4 1004.1
21 17.03 ЮЗ 1 4000 м ясно +22.4 +12.6 54 +25 +25 комфорт 1012.7 1003.4
00 18.03 ЮЗ 1 4000 м ясно +21.2 +12.4 57 +23 +23 комфорт 1012.4 1003.0
03 18.03 штиль 0 4000 м ясно +21.0 +8.5 45 +22 +27 комфорт 1014.1 1004.7 +20.0
06 18.03 штиль 0 4000 м ясно +32.0 +10.0 26 +32 +54 опасность
солнечного
удара
1015.2 1006.1
09 18.03 нст 1 4000 м ясно +35.4 +9.4 20 +34 +53 опасность
солнечного
удара
1014.1 1005.2
12 18.03 СВ 2 4000 м ясно +35.0 +4.7 15 +32 +35 жарко 1010.8 1001.9 +37.0
15 18.03 ЮЗ 1 4000 м ясно +28.8 +4.8 22 +27 +27 жарко 1012.3 1003.2
18 18.03 ЮЗ 1 4000 м 3/3 600 м
[Sc]
+25.6 +5.9 28 +25 +25 комфорт 1012.8 1003.6
21 18.03 штиль 0 4000 м ясно +23.6 +6.6 33 +24 +24 комфорт 1012.3 1003.0
00 19.03 штиль 0 4000 м ясно +22.4 +8.0 40 +24 +24 комфорт 1011.6 1002.3
03 19.03 штиль 0 4000 м ясно +23.0 +11.7 49 +25 +30 комфорт 1011.8 1002.5 +20.7
06 19.03 ЮЗ 1 4000 м ясно +31.4 +4.7 19 +29 +49 жарко 1011.9 1002.9
09 19.03 ЮЗ 2 4000 м ясно +34.4 +7.5 19 +33 +49 жарко 1009.8 1000.9
12 19.03 ЮЗ 2 4000 м ясно +34.0 +0.7 12 +31 +33 жарко 1008.1 999.2 +35.6
15 19.03 ЮЗ 2 4000 м ясно +29.0 +9.8 30 +29 +29 жарко 1008.6 999.5
18 19.03 ЮЗ 2 4000 м ясно +24.0 +15.8 60 +27 +27 жарко 1010.0 1000.7
21 19.03 ЮЗ 1 4000 м ясно +22.0 +16.8 72 +26 +26 душно 1009.5 1000.2
00 20.03 ЮЗ 1 4000 м ясно +20.8 +18.9 89 +26 +26 душно 1009.2 999.9
03 20.03 СЗ 1 4000 м 4/4 600 м
[Sc]
+21.8 +19.6 87 +27 +30 душно 1010.3 1001.0 +19.8
06 20.03 СЗ 1 4000 м 1/0
[Ci fib]
+27.0 +13.9 45 +29 +48 жарко 1011.6 1002.4
09 20.03 С 2 4000 м ясно +31.4 +9.0 25 +31 +48 жарко 1009.1 1000.1
12 20.03 ЮЗ 2 4000 м ясно +32.0 +5.9 20 +30 +32 жарко 1008.4 999.4 +33.2
15 20.03 ЮЗ 2 4000 м ясно +27.0 +7.1 28 +27 +27 жарко 1009.5 1000.3
18 20.03 штиль 0 4000 м ясно +21.8 +15.5 67 +25 +25 комфорт 1011.3 1002.0
21 20.03 штиль 0 4000 м ясно +20.0 +17.4 85 +23 +23 комфорт 1010.1 1000.7
00 21.03 штиль 0 4000 м ясно +18.8 +18.2 96 +20 +20 1009.4 1000.0
03 21.03 штиль 0 4000 м ясно +21.4 +18.9 86 +26 +31 душно 1013.1 1003.7 +18.5
06 21.03 З 1 4000 м ясно +26.4 +13.6 45 +28 +48 жарко 1013.8 1004.6
09 21.03 штиль 0 4000 м 3/3 600 м
[Sc]
+33.0 +7.2 20 +31 +46 жарко 1011.4 1002.4
12 21.03 СВ 1 4000 м 4/4 600 м
[Sc]
+35.0 +4.7 15 +32 +34 жарко 1010.4 1001.5 +35.8
15 21.03 штиль 0 4000 м ясно +30.0 +10.9 31 +30 +30 жарко 1012.3 1003.2
18 21.03 штиль 0 4000 м ясно +25.0 +15.4 55 +28 +28 жарко 1012.9 1003.7
21 21.03 штиль 0 4000 м ясно +23.0 +17.2 70 +28 +28 душно 1012.7 1003.4
00 22.03 штиль 0 4000 м ясно +21.6 +18.4 82 +26 +26 душно 1012.2 1002.9
03 22.03 штиль 0 4000 м ясно +22.2 +16.7 71 +27 +31 душно 1015.5 1006.1 +20.4
06 22.03 штиль 0 4000 м ясно +30.4 +7.2 23 +29 +52 опасность
солнечного
удара
1014.4 1005.3
09 22.03 нст 1 4000 м ясно +35.0 +4.7 15 +32 +52 опасность
солнечного
удара
1013.1 1004.2
12 22.03 ЮВ 2 4000 м ясно +35.4 +8.8 20 +34 +37 очень
жарко
1011.1 1002.2 +37.4
15 22.03 ЮЗ 2 4000 м ясно +30.4 +14.3 38 +32 +32 жарко 1012.8 1003.7
18 22.03 ЮЗ 1 4000 м ясно +27.0 +7.1 28 +27 +27 жарко 1014.3 1005.1
21 22.03 ЮЗ 1 4000 м ясно +24.8 +9.5 38 +26 +26 жарко 1013.8 1004.5
00 23.03 штиль 0 4000 м ясно +22.6 +11.1 48 +25 +25 комфорт 1013.6 1004.3
03 23.03 штиль 0 4000 м ясно +24.4 +14.7 55 +27 +32 жарко 1015.5 1006.2 +21.3
06 23.03 СВ 1 4000 м ясно +33.5 +8.9 22 +32 +52 опасность
солнечного
удара
1014.7 1005.7
09 23.03 штиль 0 4000 м ясно +37.0 +18.1 33 +41 +62 опасность
перегрева
1012.8 1003.9
12 23.03 штиль 0 4000 м ясно +37.4 +15.3 27 +39 +42 очень
душно
1010.8 1001.9 +39.0
15 23.03 штиль 0 4000 м ясно +31.4 +18.1 45 +36 +36 очень
душно
1010.9 1001.9
18 23.03 ЮЗ 1 4000 м ясно +28.4 +21.5 66 +36 +36 очень
душно
1012.6 1003.5

 

Местоположение метеостанции Бхудж (Гуджарат, Индия): широта 23.25 долгота 69.67 высота над уровнем моря 80 м.

В архиве по умолчанию представлена погода в Бхудже за последнюю неделю. Архивные данные за месяц целиком и за предыдущие месяцы, начиная с января 2011 года, Вы можете получить, выбрав интересующий диапазон дат из раскрывающегося списка и нажав кнопку "Ввод!".


*Определитесь, кто Вы:
робот инопланетянин человек

Внимание! Время в таблицах - всемирное. Для получения местного времени необходимо прибавить поправку, которая равна 5.5 ч.

Смотрите также архив погоды в соседних городах и на ближайших метеорологических станциях:

Погода в Кандле (Гуджарат, Индия) (47 км)
Погода в Нью-Кандле (Гуджарат, Индия) (63 км)
Погода в Мандви (Гуджарат, Индия) (63 км)
Погода в Налии (Гуджарат, Индия) (84 км)
Погода в Охе (Гуджарат, Индия) (103 км)
Погода в Дварке (Гуджарат, Индия) (115 км)
Погода в Раджкоте (Гуджарат, Индия) (155 км)
Погода в Митхи (Пакистан) (166 км)
Погода в Бадине (Пакистан) (172 км)
Погода в Порбандаре (Гуджарат, Индия) (178 км)

Пояснения к столбцам:

Ветер - указаны скорость ветра в м/с - средняя за 10 мин, порывы в срок и между сроками (в фигурных скобках) и направление, откуда дует ветер: С - северный, СВ - северо-восточный, В - восточный, ЮВ - юго-восточный, Ю - южный, ЮЗ - юго-западный, З - западный, СЗ - северо-западный.
Видимость - горизонтальная дальность видимости в метрах или километрах. При видимости от 1 до 10 км при отсутствии осадков обычно наблюдается дымка, при ухудшении видимости до 1 км и менее - туман. В сухую погоду видимость может ухудшаться дымом, пылью или мглою.
Явления - указаны атмосферные явления, наблюдавшиеся в срок или в последний час перед сроком; фигурными скобками обозначены явления, наблюдавшиеся между сроками (за 1-3 часа до срока); квадратными скобками обозначены град или гололедные отложения с указанием их диаметра в мм.
Облачность - указаны через наклонную черту общая и нижняя облачность в баллах и высота нижней границы облаков в метрах; квадратными скобками обозначены формы облаков: Ci - перистые, Cs - перисто-слоистые, Cc - перисто-кучевые, Ac - высококучевые, As - высокослоистые, Sc - слоисто-кучевые, Ns - слоисто-дождевые, Cu - кучевые, Cb - кучево-дождевые. Подробнее классификацию облаков см. в Атласе облаков (PDF).
T - Температура воздуха - температура, измеренная на высоте 2 м над землей.
Td - Температура точки росы - температура, при понижении до которой содержащийся в воздухе водяной пар достигнет насыщения.
f - Относительная влажность воздуха - влажноcть воздуха, измеренная на высоте 2 м над землей.
Te - Эффективная температура - температура, которую ощущает одетый по сезону человек в тени. Характеристика душности погоды. При расчете учитывается влияние влажности воздуха и скорости ветра на теплоощущения человека.
Tes - Эффективная температура на солнце - температура, которую ощущает человек, с поправкой на солнечный нагрев. Характеристика знойности погоды. Зависит от высоты солнца над горизонтом, облачности и скорости ветра. Ночью, в пасмурную погоду, а также при ветре 12 м/с и более поправка равна нулю.
P - Атмосферное давление - приведенное к уровню моря атмосферное давление.
Po - Атмосферное давление - измеренное на уровне метеостанции атмосферное давление.
Tmin - Минимальная температура - минимум температуры воздуха на высоте 2 м над землей.
Tmax - Максимальная температура - максимум температуры воздуха на высоте 2 м над землей.
R - Количество осадков - Количество выпавших осадков за период времени, мм. При наведении курсора мыши на число - период времени, за который выпало указанное количество осадков.
R24 - Количество осадков - Количество выпавших осадков за 24 часа, мм.
S - Снежный покров - Высота снежного покрова, см. При наведении курсора мыши на число - состояние снежного покрова и степень покрытия местности в баллах.